[[{"header":{"parameterUnit":"m.s-1","parameterCategory":1,"la1":30.2991,"la2":30.254,"lo1":-89.0895,"lo2":-89.0444,"dy":0.0017,"dx":0.0017,"nx":28,"ny":28,"refTime":"2025-03-15T21:00:00:Z","depth":0,"parameterNumber":2,"parameterNumberName":"U-component_of_WINDS"},"data":[0,0,0,0,0,0,0,0,0,0,0,0,0,0,0,0,0,0,0,0,0,0,0,0,0,0,0,0,0,0,0,0,0,0,0,0,0,0,0,0,0,0,0,0,0,0,0,0,0,0,0,0,0,0,0,0,0,0,2.087,2.0868,0,2.0667,2.0665,2.0663,2.0514,2.0513,2.0511,2.051,2.0305,2.0301,2.0297,0,0,0,0,0,0,0,0,0,0,0,0,0,2.1131,2.1127,2.087,2.0868,2.0865,2.0668,2.0665,2.0662,2.0514,2.0513,2.0511,2.051,2.0306,2.0301,2.0296,0,0,0,0,0,0,0,0,0,0,0,0,0,2.0982,2.1126,2.0871,2.0767,2.0756,2.0668,2.0665,2.0662,2.0514,2.0513,2.0511,2.0509,2.0308,2.0302,2.0296,2.0295,0,0,2.0276,2.0273,0,0,0,0,0,0,0,0,2.0991,2.0973,2.0785,2.0774,2.0762,2.0614,2.0682,2.0539,2.0515,2.0606,2.051,2.0508,2.041,2.0395,2.0361,2.0285,2.0277,2.0276,2.0272,2.0269,2.0267,0,0,0,0,0,0,0,2.1001,2.0981,2.079,2.0783,2.0768,2.0732,2.0709,2.0654,2.0521,2.0598,2.0587,2.0565,2.0403,2.0368,2.0355,2.0274,2.0276,2.027,2.0266,2.0264,2.0187,2.0189,0,0,0,0,0,0,2.1028,2.099,2.0796,2.0784,2.0874,2.0729,2.0703,2.0663,2.0522,2.0498,2.0567,2.0559,2.0379,2.0363,2.0347,2.0337,2.0269,2.0263,2.0259,2.0186,2.0188,2.019,0,0,0,0,0,0,2.1034,2.1012,2.0805,2.0884,2.0855,2.0726,2.0683,2.066,2.0625,2.0498,2.0474,2.0555,2.0377,2.0356,2.0309,2.0328,2.026,2.0254,2.0183,2.0186,2.0189,2.0318,0,0,0,0,0,0,2.1042,2.1015,2.1013,2.0885,2.0851,2.077,2.0684,2.0658,2.0614,2.0602,2.048,2.0458,2.0374,2.0319,2.0303,2.0318,2.0249,2.0181,2.0185,2.0188,2.0311,2.0325,2.0336,0,0,0,0,0,2.1052,2.1058,2.1013,2.0991,2.0846,2.0771,2.0752,2.0654,2.0616,2.0613,2.0532,2.0462,2.0329,2.0316,2.0296,2.031,2.018,2.0184,2.0188,2.0306,2.0322,2.0336,0,0,0,0,0,0,2.1192,2.1039,2.0988,2.0953,2.0876,2.0746,2.0739,2.0674,2.0607,2.0598,2.048,2.0454,2.042,2.0359,2.0348,2.0302,2.0245,2.0246,2.0342,2.0356,2.0369,2.0384,2.0244,0,0,0,0,0,2.1219,2.117,2.1039,2.1021,2.0984,2.0869,2.0833,2.0764,2.068,2.0647,2.0561,2.0483,2.0423,2.0386,2.0324,2.0302,2.0273,2.0301,2.0314,2.0325,2.0326,2.031,2.0321,2.0203,2.0203,2.0203,0,0,2.1273,2.1184,2.116,2.1047,2.0979,2.0932,2.0843,2.0796,2.076,2.064,2.059,2.0525,2.0429,2.0395,2.0375,2.0344,2.0353,2.033,2.0339,2.0335,2.0316,2.0327,2.0337,2.0206,2.0205,2.0205,0,0,2.1349,2.1276,2.1253,2.1187,2.1085,2.1008,2.1003,2.0882,2.0834,2.0782,2.0691,2.0647,2.0546,2.0482,2.0436,2.0488,2.0422,2.0471,2.0536,2.0522,2.0531,2.0539,2.0558,2.0566,2.0473,2.0474,2.0474,0,2.143,2.1355,2.125,2.1208,2.1161,2.1049,2.1025,2.0966,2.085,2.0821,2.0787,2.0658,2.0586,2.0535,2.0548,2.0514,2.0505,2.0485,2.0538,2.0545,2.0551,2.0567,2.0575,2.048,2.048,2.0479,2.0478,0,2.146,2.1409,2.1403,2.1293,2.1245,2.1213,2.1103,2.1067,2.1003,2.093,2.0879,2.0788,2.0706,2.0689,2.0626,2.0629,2.0612,2.056,2.0501,2.057,2.0584,2.059,2.049,2.0488,2.0486,2.0484,0,0,2.1618,2.145,2.145,2.1399,2.1278,2.1237,2.1201,2.1119,2.1091,2.1015,2.0982,2.0899,2.085,2.0798,2.0727,2.0715,2.0762,2.0663,2.0659,2.0685,2.076,2.0801,2.081,2.0717,2.0718,2.0719,2.0769,0,2.1676,2.1603,2.1507,2.1467,2.1419,2.1312,2.1279,2.1203,2.1134,2.1084,2.1007,2.0951,2.089,2.0858,2.0841,2.076,2.0776,2.0755,2.0686,2.0685,2.0713,2.0817,2.0859,2.0911,2.0773,2.0774,2.0775,0,2.1733,2.1662,2.1617,2.1501,2.1477,2.145,2.1368,2.1321,2.1232,2.1182,2.1125,2.1048,2.1004,2.0952,2.089,2.0879,2.0844,2.0801,2.08,2.079,2.0734,2.0811,2.0925,2.0933,2.0782,2.0781,2.0781,0,2.1854,2.1747,2.1706,2.1665,2.1529,2.1512,2.1455,2.1363,2.1321,2.125,2.1221,2.1146,2.1105,2.1049,2.0954,2.0925,2.0904,2.0843,2.0862,2.0865,2.0863,2.0864,2.0974,2.0841,2.0841,2.0841,2.084,0,2.1928,2.1905,2.1758,2.1734,2.1704,2.1595,2.1569,2.1502,2.1422,2.1382,2.1285,2.1251,2.1127,2.1078,2.1004,2.0964,2.0947,2.0906,2.0887,2.0915,2.092,2.0891,2.0886,2.0842,2.0842,2.0842,2.0841,0,2.2059,2.1959,2.1908,2.1782,2.175,2.1735,2.1628,2.16,2.1525,2.1476,2.1459,2.1342,2.1279,2.1179,2.1086,2.1036,2.1011,2.0978,2.1041,2.1029,2.1054,2.1053,2.1149,2.1157,2.102,2.1021,2.1022,0,2.2113,2.2092,2.1965,2.1931,2.1877,2.1824,2.178,2.1671,2.163,2.1527,2.1512,2.1441,2.1379,2.1284,2.1191,2.112,2.1085,2.1124,2.1074,2.1103,2.1086,2.1089,2.1087,2.1136,2.1138,2.1139,2.1141,0,2.222,2.2172,2.2111,2.2035,2.1985,2.1919,2.1849,2.1827,2.1703,2.1661,2.1595,2.1547,2.1453,2.1384,2.13,2.1241,2.1171,2.1157,2.1158,2.1187,2.1224,2.1205,2.1073,2.1155,2.1154,2.1153,2.1152,2.1152,2.2313,2.229,2.2197,2.2133,2.2069,2.2006,2.1973,2.1894,2.1837,2.1752,2.1691,2.163,2.1541,2.1421,2.1366,2.1317,2.1286,2.1287,2.1287,2.1289,2.13,2.1232,2.1301,2.1301,2.13,2.13,2.1299,0,2.2415,2.235,2.2293,2.2197,2.2148,2.2085,2.2004,2.1966,2.1913,2.1836,2.1777,2.1702,2.1635,2.1537,2.1463,2.1443,2.1408,2.1427,2.1427,2.1415,2.1332,2.1339,2.1456,2.1456,2.1456,2.1456,2.1456,2.1456,2.2463,2.242,2.2362,2.2287,2.2221,2.216,2.2119,2.206,2.1998,2.1919,2.1862,2.1799,2.1713,2.1632,2.1569,2.1541,2.1519,2.1548,2.1511,2.1435,2.1421,2.1407,2.1413,2.1544,2.1544,2.1598,2.1598,2.1599]},{"header":{"parameterUnit":"m.s-1","parameterCategory":1,"la1":30.2991,"la2":30.254,"lo1":-89.0895,"lo2":-89.0444,"dy":0.0017,"dx":0.0017,"nx":28,"ny":28,"refTime":"2025-03-15T21:00:00:Z","depth":0,"parameterNumber":3,"parameterNumberName":"V-component_of_WINDS"},"data":[0,0,0,0,0,0,0,0,0,0,0,0,0,0,0,0,0,0,0,0,0,0,0,0,0,0,0,0,0,0,0,0,0,0,0,0,0,0,0,0,0,0,0,0,0,0,0,0,0,0,0,0,0,0,0,0,0,0,7.1477,7.1481,0,7.18,7.1803,7.1807,7.1891,7.1889,7.1887,7.1885,7.2221,7.2231,7.2242,0,0,0,0,0,0,0,0,0,0,0,0,0,7.094,7.0949,7.1477,7.1481,7.1485,7.1799,7.1804,7.1808,7.1892,7.1889,7.1887,7.1885,7.2217,7.223,7.2243,0,0,0,0,0,0,0,0,0,0,0,0,0,7.1209,7.0952,7.1476,7.1565,7.1576,7.1798,7.1804,7.1809,7.1892,7.1889,7.1886,7.1883,7.2213,7.2229,7.2245,7.2404,0,0,7.2294,7.2301,0,0,0,0,0,0,0,0,7.1193,7.1228,7.1548,7.1559,7.1572,7.1802,7.1737,7.2009,7.1893,7.1772,7.1885,7.1882,7.2084,7.2111,7.2178,7.242,7.2434,7.2296,7.2305,7.2312,7.2317,0,0,0,0,0,0,0,7.1175,7.1215,7.1605,7.1552,7.1567,7.159,7.1625,7.1789,7.1941,7.1782,7.1789,7.1826,7.209,7.2162,7.2187,7.2439,7.2295,7.2309,7.2319,7.2326,7.2832,7.2835,0,0,0,0,0,0,7.114,7.1199,7.1595,7.1615,7.1371,7.1602,7.1641,7.1731,7.194,7.1968,7.1828,7.1829,7.2136,7.2168,7.2199,7.2402,7.2312,7.2327,7.2337,7.2828,7.2832,7.2836,0,0,0,0,0,0,7.1128,7.1174,7.1582,7.1409,7.1462,7.1614,7.1715,7.1739,7.1811,7.1974,7.2002,7.1873,7.2135,7.2176,7.2353,7.2414,7.2335,7.2349,7.2823,7.2829,7.2834,7.2806,0,0,0,0,0,0,7.1112,7.117,7.123,7.1409,7.1471,7.1728,7.1719,7.1748,7.1838,7.1842,7.2024,7.2051,7.2136,7.2328,7.2369,7.2435,7.2362,7.2819,7.2826,7.2833,7.2802,7.281,7.2817,0,0,0,0,0,7.1093,7.121,7.1233,7.128,7.155,7.1732,7.1767,7.1861,7.1843,7.1906,7.2011,7.2045,7.24,7.2346,7.2392,7.2464,7.2815,7.2824,7.2832,7.2799,7.2809,7.2817,0,0,0,0,0,0,7.1035,7.1235,7.1263,7.1441,7.1568,7.1745,7.1828,7.1867,7.2004,7.2002,7.2114,7.2154,7.2324,7.2412,7.2347,7.2631,7.2608,7.2626,7.2567,7.2578,7.2585,7.2561,7.2375,0,0,0,0,0,7.1042,7.1172,7.134,7.1481,7.1544,7.1674,7.1757,7.1818,7.1956,7.2011,7.2129,7.2262,7.2405,7.2496,7.2635,7.2815,7.2858,7.2888,7.2895,7.29,7.2915,7.302,7.3036,7.2864,7.2864,7.2864,0,0,7.106,7.1186,7.1261,7.1473,7.1579,7.1713,7.172,7.186,7.1961,7.2033,7.2207,7.2298,7.2455,7.2635,7.272,7.2713,7.2972,7.2911,7.2914,7.2926,7.303,7.3046,7.3061,7.287,7.2869,7.2868,0,0,7.1162,7.1268,7.1398,7.1505,7.1665,7.1752,7.1782,7.1955,7.2018,7.2194,7.2251,7.2374,7.2615,7.2726,7.2813,7.2958,7.2996,7.3,7.3039,7.314,7.3153,7.3166,7.322,7.3238,7.3014,7.3014,7.3014,0,7.1164,7.1366,7.1461,7.1599,7.1692,7.1762,7.1896,7.1995,7.2193,7.2257,7.2246,7.2552,7.2663,7.2871,7.2906,7.2974,7.3015,7.2981,7.3143,7.3157,7.317,7.3223,7.3243,7.3014,7.3014,7.3014,7.3014,0,7.1362,7.1501,7.1588,7.1777,7.1879,7.2015,7.2133,7.2225,7.2278,7.2366,7.2547,7.2681,7.2851,7.2904,7.2957,7.3121,7.3112,7.312,7.3101,7.3185,7.3237,7.3258,7.3014,7.3014,7.3014,7.3014,0,0,7.1436,7.1676,7.1707,7.1794,7.1977,7.2088,7.2227,7.2392,7.247,7.2605,7.2727,7.2931,7.294,7.304,7.3106,7.3194,7.3303,7.3193,7.3198,7.3211,7.3496,7.349,7.3511,7.3329,7.3333,7.3336,7.3484,0,7.1562,7.1813,7.1903,7.2111,7.2242,7.2311,7.2433,7.256,7.2646,7.2773,7.2869,7.3012,7.3013,7.3074,7.3164,7.327,7.3363,7.3261,7.3447,7.3452,7.3407,7.3538,7.3532,7.3664,7.3504,7.3508,7.351,0,7.1742,7.1878,7.2098,7.2267,7.2325,7.2433,7.2593,7.2711,7.2857,7.2914,7.3026,7.3086,7.3238,7.3207,7.342,7.3349,7.343,7.3495,7.3502,7.3525,7.3487,7.3567,7.3709,7.3729,7.3543,7.354,7.3538,0,7.1777,7.2015,7.2179,7.2251,7.2451,7.2526,7.2613,7.2756,7.285,7.2989,7.3052,7.3207,7.3293,7.3414,7.3516,7.3483,7.3721,7.3698,7.3775,7.3773,7.3823,7.3819,7.3982,7.3872,7.3871,7.3871,7.387,0,7.1909,7.2042,7.2197,7.2298,7.245,7.2553,7.2701,7.2793,7.292,7.3041,7.311,7.3223,7.335,7.348,7.3561,7.3727,7.3764,7.3817,7.3838,7.3813,7.3806,7.3869,7.3863,7.3876,7.3875,7.3874,7.3873,0,7.1974,7.2083,7.2267,7.244,7.2488,7.2592,7.2742,7.2844,7.2933,7.3087,7.3129,7.327,7.3428,7.3541,7.3744,7.3798,7.3977,7.3996,7.3927,7.3938,7.401,7.4002,7.4221,7.4257,7.4119,7.412,7.4121,0,7.2053,7.2156,7.2341,7.2427,7.2514,7.2651,7.2747,7.2853,7.2951,7.3126,7.3208,7.3369,7.3504,7.3753,7.3875,7.4032,7.4057,7.4123,7.4081,7.4053,7.4061,7.4055,7.4067,7.4129,7.413,7.4131,7.4132,0,7.2181,7.223,7.2364,7.2519,7.2631,7.2758,7.2887,7.2953,7.3083,7.319,7.3351,7.3455,7.3663,7.3824,7.3992,7.4085,7.4132,7.4143,7.417,7.4147,7.4104,7.4131,7.3947,7.4138,7.4138,7.4137,7.4137,7.4137,7.2257,7.2353,7.2499,7.2648,7.2755,7.2874,7.2978,7.3081,7.3216,7.3392,7.3448,7.3615,7.3762,7.3993,7.4088,7.4222,7.422,7.4257,7.4268,7.4276,7.4276,7.408,7.4253,7.4253,7.4253,7.4253,7.4253,0,7.2391,7.2488,7.2623,7.2801,7.2918,7.2949,7.3093,7.319,7.3336,7.3468,7.3599,7.3786,7.3943,7.4077,7.4241,7.4323,7.4349,7.4362,7.4359,7.438,7.4268,7.423,7.4339,7.4339,7.4339,7.4339,7.4339,7.4339,7.2474,7.264,7.2706,7.2927,7.3024,7.3187,7.3267,7.3378,7.3484,7.3689,7.3819,7.3905,7.404,7.4213,7.436,7.4396,7.4454,7.4463,7.4504,7.4398,7.4387,7.4378,7.4343,7.4474,7.4474,7.4606,7.4607,7.4608]}]]